星链-36277(STARLINK-36277)

导读

STARLINK-36277(NORAD编号68305)是SpaceX星链星座中的第二代低轨互联网卫星,隶属于SpaceX全球卫星互联网计划。该卫星原运行于约550公里高度的近地轨道,在SpaceX 2026年星链轨道优化计划中,已将轨道高度调整至480公里。降低轨道可让卫星失效后更快再入大气层烧毁,降低碰撞风险和太空碎片产生概率,缓解近地轨道拥挤问题。作为星链网络的组成部分,它搭载相控阵天线,为全球提供低时延宽带互联网接入服务,助力实现全球覆盖的卫星通信网络。

Basic Information
目录编号:
68305
目录名称:
STARLINK-36277
国际标识:
2026-057M
轨道中心:
EARTH
卫星名称:
星链-36277
卫星全名:
星链-36277(STARLINK-36277)
卫星状态:
在轨 (已飞行177 天)
发射日期:
2026-03-20 UTC
国别 :
美国 (US)
星等 :
--
This satellite is enrolled in the Space Conjunction Data Service (SCDS) and the current flight risk assessment level is: No High Risk
Orbit Information
数据来源 国际轨道数据
星历时间: 2026-09-13T14:59:32+0800
5小时前
查看轨道信息
半长轴: 6843.657km
偏心率: 0.0001097
轨道倾角: 97.286°
近地点辐角 86.410°
升交点赤经 20.797°
平近点角 273.726°
近地点: 464.769km
远地点: 466.271km
周期: 93.906分钟
每日圈数: 15.334531
Detailed Information
固有亮度:
5
最大亮度:
2.5
卫星平台:
Starlink V1.0
覆盖范围:
全球
运营商:
太空探索技术公司
运营商所在国:
美国
制造商(研发单位):
太空探索技术公司
制造商所在国:
美国
使用方式:
暂无
Satellite Introduction
Starlink 计划是 SpaceX 推出的全球卫星互联网项目,通过发射低轨道卫星,为全球尤其是偏远地区提供高速、低延迟的互联网服务。自 2019 年起,Starlink 已部署数千颗卫星,旨在缩小全球数字鸿沟,推动互联网普及。该项目还为军事、航空等行业提供通信支持,带来广泛经济效益。
2D Orbit Map
3D Orbit Map
Orbit Altitude Analysis Chart
Orbit Inclination Analysis Chart
Orbit Comprehensive Analysis Chart
View Comprehensive Chart
Conjunction Data List
Event ID Objects TCA Miss Dist (km) Collision Risk Probability Collision Risk Index (CRI) Action
CDM_260915-053305-306406-830521
2026-09-15T
05:33:55+0000
0.753 km
远距离
3.930388E-5 中风险 0.67
CDM_260914-204805-249106-830521
2026-09-14T
20:48:33+0000
2.630 km
极远距离
1.445046E-6 低风险 0.38
CDM_260915-031205-306406-830521
2026-09-15T
03:12:59+0000
2.195 km
极远距离
1.395966E-6 低风险 0.38
CDM_260914-202005-373306-830521
2026-09-14T
20:20:41+0000
2.652 km
极远距离
1.338191E-6 低风险 0.38
CDM_260914-210705-373306-830521
2026-09-14T
21:07:38+0000
2.722 km
极远距离
1.28685E-6 低风险 0.37
CDM_260913-102005-231306-830521
2026-09-13T
10:20:14+0000
2.570 km
极远距离
1.280494E-6 低风险 0.37
CDM_260913-231206-547606-830521
2026-09-13T
23:12:29+0000
2.752 km
极远距离
1.229994E-6 低风险 0.37
CDM_260915-044605-306406-830521
2026-09-15T
04:46:56+0000
2.638 km
极远距离
1.001446E-6 低风险 0.35
Miss Distance Evolution Trend with All Objects
Collision Probability Evolution Trend with All Objects